Time,TemperatureF,DewpointF,PressureIn,WindDirection,WindDirectionDegrees,WindSpeedMPH,WindSpeedGustMPH,Humidity,HourlyPrecipIn,Conditions,Clouds,dailyrainin,SoftwareType,DateUTC
2013-10-25 00:03:00,25.0,21.0,30.35,North,0,0.0,-999.0,85,-99.99,,,-99.99,,2013-10-25 05:03:00,
2013-10-25 00:12:00,25.0,21.0,30.35,North,0,0.0,-999.0,85,-99.99,,,-99.99,,2013-10-25 05:12:00,
2013-10-25 00:21:00,25.0,21.0,30.35,North,0,0.0,-999.0,85,-99.99,,,-99.99,,2013-10-25 05:21:00,
2013-10-25 00:42:00,25.0,21.0,30.36,North,0,0.0,-999.0,85,-99.99,,,-99.99,,2013-10-25 05:42:00,
2013-10-25 00:51:00,25.0,21.0,30.36,North,0,0.0,-999.0,85,-99.99,,,-99.99,,2013-10-25 05:51:00,
2013-10-25 01:01:00,25.0,21.0,30.36,North,0,0.0,-999.0,85,-99.99,,,-99.99,,2013-10-25 06:01:00,
2013-10-25 01:21:00,25.0,21.0,30.36,North,0,0.0,-999.0,85,-99.99,,,-99.99,,2013-10-25 06:21:00,
2013-10-25 01:41:00,25.0,21.0,30.36,North,0,0.0,-999.0,85,-99.99,,,-99.99,,2013-10-25 06:41:00,
2013-10-25 02:21:00,25.0,21.0,30.35,North,0,0.0,-999.0,85,-99.99,,,-99.99,,2013-10-25 07:21:00,
2013-10-25 02:41:00,25.0,19.0,30.35,North,0,0.0,-999.0,79,-99.99,,,-99.99,,2013-10-25 07:41:00,
2013-10-25 02:51:00,23.0,19.0,30.35,North,0,0.0,-999.0,85,-99.99,,,-99.99,,2013-10-25 07:51:00,
2013-10-25 03:01:00,23.0,19.0,30.35,North,0,0.0,-999.0,85,-99.99,,,-99.99,,2013-10-25 08:01:00,
2013-10-25 03:21:00,25.0,21.0,30.34,North,0,0.0,-999.0,85,-99.99,,,-99.99,,2013-10-25 08:21:00,
2013-10-25 03:41:00,25.0,21.0,30.34,North,0,0.0,-999.0,85,-99.99,,,-99.99,,2013-10-25 08:41:00,
2013-10-25 04:21:00,23.0,19.0,30.33,North,0,0.0,-999.0,85,-99.99,,,-99.99,,2013-10-25 09:21:00,
2013-10-25 04:42:00,23.0,19.0,30.32,North,0,0.0,-999.0,85,-99.99,,,-99.99,,2013-10-25 09:42:00,
2013-10-25 05:22:00,25.0,19.0,30.31,North,0,0.0,-999.0,79,-99.99,,,-99.99,,2013-10-25 10:22:00,
2013-10-25 05:41:00,23.0,19.0,30.31,North,0,0.0,-999.0,85,-99.99,,,-99.99,,2013-10-25 10:41:00,
2013-10-25 06:21:00,28.0,25.0,30.30,SSW,210,6.0,-999.0,86,-99.99,,,-99.99,,2013-10-25 11:21:00,
2013-10-25 06:41:00,28.0,25.0,30.29,South,170,6.0,-999.0,86,-99.99,,,-99.99,,2013-10-25 11:41:00,
2013-10-25 07:21:00,28.0,25.0,30.27,South,170,5.0,-999.0,86,-99.99,,,-99.99,,2013-10-25 12:21:00,
2013-10-25 07:41:00,30.0,25.0,30.26,SSE,160,5.0,-999.0,80,-99.99,,,-99.99,,2013-10-25 12:41:00,
2013-10-25 08:21:00,30.0,27.0,30.25,South,170,5.0,-999.0,86,-99.99,,,-99.99,,2013-10-25 13:21:00,
2013-10-25 08:41:00,32.0,27.0,30.24,South,170,6.0,-999.0,80,-99.99,,,-99.99,,2013-10-25 13:41:00,
2013-10-25 09:11:00,32.0,27.0,30.24,South,180,6.0,-999.0,80,-99.99,,,-99.99,,2013-10-25 14:11:00,
2013-10-25 09:22:00,32.0,27.0,30.24,South,180,6.0,-999.0,80,-99.99,,,-99.99,,2013-10-25 14:22:00,
2013-10-25 09:42:00,36.0,28.0,30.24,South,170,7.0,-999.0,74,-99.99,,,-99.99,,2013-10-25 14:42:00,
2013-10-25 09:52:00,37.0,30.0,30.23,South,170,5.0,-999.0,74,-99.99,,,-99.99,,2013-10-25 14:52:00,
2013-10-25 10:01:00,37.0,30.0,30.23,South,170,5.0,-999.0,74,-99.99,,,-99.99,,2013-10-25 15:01:00,
2013-10-25 10:21:00,39.0,32.0,30.22,South,170,8.0,-999.0,75,-99.99,,,-99.99,,2013-10-25 15:21:00,
2013-10-25 12:23:00,52.0,37.0,30.17,SW,220,20.0,25.0,57,-99.99,,,-99.99,,2013-10-25 17:23:00,
2013-10-25 12:43:00,54.0,37.0,30.16,SW,220,21.0,29.0,54,-99.99,,,-99.99,,2013-10-25 17:43:00,
2013-10-25 13:21:00,57.0,39.0,30.14,SW,230,16.0,24.0,50,-99.99,,,-99.99,,2013-10-25 18:21:00,
2013-10-25 13:42:00,57.0,39.0,30.12,SW,220,20.0,27.0,50,-99.99,,,-99.99,,2013-10-25 18:42:00,
2013-10-25 14:22:00,61.0,39.0,30.10,SW,230,16.0,30.0,44,-99.99,,,-99.99,,2013-10-25 19:22:00,
2013-10-25 14:42:00,61.0,39.0,30.09,WSW,240,20.0,25.0,44,-99.99,,,-99.99,,2013-10-25 19:42:00,
2013-10-25 15:22:00,63.0,39.0,30.06,SSW,210,27.0,33.0,41,-99.99,,,-99.99,,2013-10-25 20:22:00,
2013-10-25 15:42:00,63.0,39.0,30.04,SW,220,22.0,31.0,41,-99.99,,,-99.99,,2013-10-25 20:42:00,
2013-10-25 16:22:00,63.0,39.0,30.02,SSW,200,22.0,33.0,41,-99.99,,,-99.99,,2013-10-25 21:22:00,
2013-10-25 16:43:00,63.0,39.0,30.01,SW,230,24.0,35.0,41,-99.99,,,-99.99,,2013-10-25 21:43:00,
2013-10-25 17:23:00,63.0,39.0,30.01,SSW,210,18.0,29.0,41,-99.99,,,-99.99,,2013-10-25 22:23:00,
2013-10-25 17:42:00,63.0,39.0,30.00,SW,220,17.0,25.0,41,-99.99,,,-99.99,,2013-10-25 22:42:00,
2013-10-25 18:22:00,61.0,39.0,29.98,SSW,210,14.0,25.0,44,-99.99,,,-99.99,,2013-10-25 23:22:00,
2013-10-25 18:42:00,59.0,39.0,29.98,SSW,210,12.0,23.0,47,-99.99,,,-99.99,,2013-10-25 23:42:00,
2013-10-25 18:52:00,57.0,39.0,29.98,SW,220,13.0,17.0,50,-99.99,,,-99.99,,2013-10-25 23:52:00,
2013-10-25 19:02:00,57.0,39.0,29.98,SW,220,13.0,17.0,50,-99.99,,,-99.99,,2013-10-26 00:02:00,
2013-10-25 19:22:00,57.0,39.0,29.98,SW,220,10.0,15.0,50,-99.99,,,-99.99,,2013-10-26 00:22:00,
2013-10-25 19:42:00,55.0,39.0,29.99,SSW,210,10.0,-999.0,54,-99.99,,,-99.99,,2013-10-26 00:42:00,
2013-10-25 20:22:00,55.0,39.0,29.98,SSW,210,12.0,16.0,54,-99.99,,,-99.99,,2013-10-26 01:22:00,
2013-10-25 20:42:00,55.0,39.0,29.98,SW,220,12.0,21.0,54,-99.99,,,-99.99,,2013-10-26 01:42:00,
2013-10-25 21:22:00,54.0,39.0,29.98,SW,220,12.0,17.0,58,-99.99,,,-99.99,,2013-10-26 02:22:00,
2013-10-25 21:43:00,54.0,37.0,29.97,SW,220,16.0,24.0,54,-99.99,,,-99.99,,2013-10-26 02:43:00,
2013-10-25 22:22:00,52.0,39.0,29.97,SW,220,12.0,18.0,61,-99.99,,,-99.99,,2013-10-26 03:22:00,
2013-10-25 22:44:00,52.0,39.0,29.97,SW,230,10.0,15.0,61,-99.99,,,-99.99,,2013-10-26 03:44:00,
2013-10-25 22:54:00,52.0,39.0,29.98,WSW,250,7.0,-999.0,61,-99.99,,,-99.99,,2013-10-26 03:54:00,
2013-10-25 23:04:00,52.0,39.0,29.98,WSW,250,7.0,-999.0,61,-99.99,,,-99.99,,2013-10-26 04:04:00,
2013-10-25 23:14:00,52.0,39.0,29.98,WSW,250,7.0,-999.0,61,-99.99,,,-99.99,,2013-10-26 04:14:00,
2013-10-25 23:24:00,50.0,39.0,29.99,WSW,250,10.0,-999.0,66,-99.99,,,-99.99,,2013-10-26 04:24:00,
2013-10-25 23:44:00,48.0,39.0,29.99,West,260,7.0,-999.0,70,-99.99,,,-99.99,,2013-10-26 04:44:00,
2013-10-25 23:54:00,48.0,39.0,29.99,WSW,240,9.0,-999.0,70,-99.99,,,-99.99,,2013-10-26 04:54:00,